FW2969 Weather Reports


time (UTC)temp
C
wind
direction
speed
KPH
gust
KPH
rain 1hr
cm
rain 24hr
cm
rain mn
cm
humidity
%
barometer
mb
20260506160038 12 255 0.0 3.2 0.00 0.13 0.03 83 1017.4
20260506154537 12 299 0.0 6.4 0.00 0.13 0.03 82 1017.3
20260506153038 13 245 1.6 6.4 0.00 0.13 0.03 80 1017.1
20260506151536 13 255 0.0 6.4 0.00 0.13 0.03 80 1017.1
20260506150036 13 255 1.6 9.7 0.00 0.13 0.03 78 1017.0
20260506144539 14 289 0.0 6.4 0.00 0.13 0.03 77 1017.1
20260506143037 13 272 1.6 9.7 0.00 0.13 0.03 76 1017.1
20260506141534 13 245 0.0 11.3 0.00 0.13 0.03 75 1017.3
20260506140031 13 307 1.6 9.7 0.00 0.13 0.03 76 1017.3
20260506134530 13 318 0.0 11.3 0.00 0.15 0.03 75 1017.4
20260506133030 13 311 3.2 16.1 0.00 0.15 0.03 75 1017.5
20260506131532 13 331 4.8 11.3 0.00 0.15 0.03 75 1017.6
20260506130029 13 250 1.6 14.5 0.00 0.15 0.03 77 1017.8
20260506124526 13 250 1.6 19.3 0.00 0.15 0.03 76 1017.9
20260506123026 13 272 4.8 14.5 0.00 0.15 0.03 76 1018.0
20260506121522 13 250 1.6 14.5 0.00 0.15 0.03 78 1017.9
20260506120020 12 331 1.6 11.3 0.00 0.15 0.03 80 1018.0
20260506114519 12 329 3.2 8.0 0.00 0.43 0.03 79 1018.1
20260506113019 12 296 4.8 11.3 0.00 0.43 0.03 80 1018.2
20260506111521 12 285 1.6 8.0 0.00 0.43 0.03 78 1018.4
20260506110021 12 220 1.6 9.7 0.00 0.43 0.03 79 1018.5
20260506104515 12 245 3.2 9.7 0.00 0.43 0.03 80 1018.6
20260506103014 12 276 3.2 6.4 0.00 0.43 0.03 79 1018.7
20260506101521 12 245 0.0 6.4 0.00 0.43 0.03 80 1018.7
20260506100009 12 238 4.8 14.5 0.00 0.43 0.03 83 1018.9
20260506094520 11 292 3.2 11.3 0.00 0.56 0.03 82 1018.8
20260506093014 11 267 3.2 11.3 0.00 0.56 0.03 82 1018.9
20260506091507 11 291 4.8 14.5 0.03 0.56 0.03 81 1018.8
20260506090005 11 274 4.8 12.9 0.03 0.56 0.03 81 1018.7
20260506084506 11 245 1.6 11.3 0.03 0.71 0.03 82 1018.8
20260506083004 11 299 3.2 8.0 0.03 0.71 0.03 83 1018.8
20260506081503 11 323 4.8 12.9 0.00 0.71 0.00 83 1018.9
20260506073059 11 223 0.0 12.9 0.00 0.99 0.00 81 1018.7
20260506071600 11 232 0.0 8.0 0.00 0.99 0.00 83 1018.7
20260506061547 10 290 0.0 6.4 0.00 1.60 0.00 90 1018.4
20260506044606 7 103 0.0 3.2 0.00 1.85 0.00 98 1018.1
20260506043031 7 103 0.0 1.6 0.00 1.85 0.00 98 1017.9
20260506041525 6 103 0.0 1.6 0.00 1.85 0.00 99 1017.5
20260506040028 6 103 0.0 3.2 0.00 1.85 0.00 98 1017.5
20260506034543 5 103 0.0 1.6 0.00 1.85 0.00 98 1017.2
20260506033020 5 103 0.0 1.6 0.00 1.85 0.00 98 1016.9
20260506031520 5 103 0.0 1.6 0.00 1.85 0.00 98 1016.7
20260506030018 5 103 0.0 3.2 0.00 1.85 0.00 98 1016.4
20260506024518 5 107 0.0 3.2 0.00 2.11 0.00 98 1016.2
20260506023017 5 107 0.0 3.2 0.00 2.11 0.00 98 1016.2
20260506021514 5 109 0.0 3.2 0.00 2.11 0.00 98 1016.0
20260506020013 5 110 0.0 1.6 0.00 2.11 0.00 98 1016.1
20260506014516 5 110 0.0 1.6 0.00 2.21 0.00 98 1016.0
20260506013013 5 110 0.0 0.0 0.00 2.21 0.00 98 1016.1
20260506011514 5 110 0.0 1.6 0.00 2.21 0.00 98 1016.0
20260506010012 5 110 0.0 4.8 0.00 2.21 0.00 98 1016.0
20260506004518 5 111 0.0 3.2 0.00 2.44 0.00 98 1016.0
20260506003009 6 111 0.0 3.2 0.00 2.44 0.00 98 1016.1
20260506001505 6 114 0.0 1.6 0.00 2.44 0.00 98 1016.0
20260506000004 6 114 0.0 0.0 0.00 2.44 0.00 98 1016.0
20260505234507 6 114 0.0 0.0 0.00 2.46 0.00 98 1016.1
20260505233114 6 114 0.0 4.8 0.00 2.46 0.00 98 1016.2
20260505231601 6 114 0.0 1.6 0.00 2.46 0.00 98 1016.2
20260505230057 6 114 0.0 0.0 0.00 2.46 0.00 98 1016.3
20260505224554 6 114 0.0 0.0 0.00 2.57 0.00 98 1016.3
20260505223053 7 114 0.0 0.0 0.00 2.57 0.00 98 1016.5
20260505221551 7 114 0.0 0.0 0.00 2.57 0.00 98 1016.6
20260505214559 7 114 0.0 0.0 0.00 2.62 0.00 98 1016.7
20260505213052 7 114 0.0 0.0 0.00 2.62 0.00 98 1016.7
20260505211552 7 114 0.0 0.0 0.00 2.62 0.00 98 1016.9
20260505210045 7 114 0.0 0.0 0.00 2.62 0.00 98 1017.0
20260505204546 7 114 0.0 0.0 0.00 2.74 2.62 98 1016.8
20260505203043 7 114 0.0 0.0 0.00 2.74 2.62 98 1016.9
20260505201543 7 114 0.0 0.0 0.03 2.74 2.62 98 1017.1
20260505200043 7 114 0.0 0.0 0.08 2.74 2.62 98 1017.1
20260505194545 7 114 0.0 0.0 0.08 2.84 2.62 98 1017.1
20260505193046 7 114 0.0 0.0 0.08 2.84 2.62 98 1017.1
20260505191551 7 114 0.0 0.0 0.05 2.84 2.59 98 1017.1
20260505190042 7 114 0.0 3.2 0.00 2.79 2.54 98 1017.1
20260505184538 7 255 0.0 1.6 0.00 2.82 2.54 98 1017.0
20260505183038 7 255 0.0 3.2 0.00 2.82 2.54 98 1016.9
20260505181536 7 223 0.0 6.4 0.00 2.82 2.54 98 1016.8
20260505180046 7 223 1.6 6.4 0.00 2.82 2.54 98 1016.6
20260505174539 7 280 0.0 6.4 0.00 2.97 2.54 98 1016.4
20260505173034 7 291 1.6 6.4 0.00 2.97 2.54 98 1016.3
20260505171534 7 282 0.0 6.4 0.03 2.97 2.54 98 1016.3
20260505170031 7 301 4.8 9.7 0.03 2.97 2.54 98 1016.0
20260505164527 8 250 4.8 12.9 0.03 3.02 2.54 98 1015.9
20260505163025 8 235 4.8 8.0 0.03 3.02 2.54 98 1015.6
20260505161523 8 227 3.2 22.5 0.00 3.00 2.51 98 1015.5